星链-35688(STARLINK-35688)

导读

STARLINK-35688是美国于2025年12月10日发射的星链卫星,星链是SpaceX打造的低轨卫星互联网星座项目。该卫星旨在为全球用户提供高速、低延迟的互联网接入服务,尤其覆盖偏远、网络基础设施薄弱区域,进一步扩充星链星座的服务覆盖能力与网络容量。

基本信息
目录编号:
67019
目录名称:
STARLINK-35688
国际标识:
2025-293S
轨道中心:
EARTH
卫星名称:
星链-35688
卫星全名:
星链-35688(STARLINK-35688)
卫星状态:
在轨 (已飞行268 天)
发射日期:
2025-12-10 UTC
国别 :
美国 (US)
星等 :
--
轨道信息
数据来源 国际轨道数据
星历时间: 2026-09-03T21:02:55+0800
1天前
查看轨道信息
半长轴: 6950.18km
偏心率: 0.0003123
轨道倾角: 70.003°
近地点辐角 269.732°
升交点赤经 6.223°
平近点角 90.349°
近地点: 569.872km
远地点: 574.214km
周期: 96.107分钟
每日圈数: 14.983344
详细信息
固有亮度:
5
最大亮度:
2.5
卫星平台:
Starlink V1.0
覆盖范围:
全球
运营商:
太空探索技术公司
运营商所在国:
美国
制造商(研发单位):
太空探索技术公司
制造商所在国:
美国
使用方式:
暂无
卫星简介
Starlink 计划是 SpaceX 推出的全球卫星互联网项目,通过发射低轨道卫星,为全球尤其是偏远地区提供高速、低延迟的互联网服务。自 2019 年起,Starlink 已部署数千颗卫星,旨在缩小全球数字鸿沟,推动互联网普及。该项目还为军事、航空等行业提供通信支持,带来广泛经济效益。
2D轨道图
3D轨道图
轨道高度分析图
轨道倾角分析图
轨道综合分析图
查看轨道综合分析图
交会数据列表
事件ID 空间交会对象 最接近时刻(TCA) 交会距离 交会风险概率(CRP) 交会风险指数(CRI) 操作
CDM_260902-221503-609006-701925
2026-09-02T
22:15:52+0000
1.162 km
极远距离
1.281913E-5 中风险 0.57
CDM_260904-021806-325006-701922
EZIE-B (63250)
2026-09-04T
02:18:14+0000
2.396 km
极远距离
1.830758E-6 低风险 0.4
CDM_260901-141004-105006-701925
2026-09-01T
14:10:12+0000
2.375 km
极远距离
1.731642E-6 低风险 0.4
CDM_260830-220406-434406-701921
2026-08-30T
22:04:34+0000
2.687 km
极远距离
1.022323E-6 低风险 0.35